Flag for Germany Weather past 2 weeks in Winsen (Luhe), Lower Saxony, Germany

Now
52 °F

Passing clouds.


Feels Like: 49 °F
Forecast: 36 / 56 °F
Wind: 7 mph from Northwest

Location: Hamburg-Finkenwerder

Current Time: Apr 28, 2015 at 2:26:53 PM

Latest Report: Apr 28, 2015 at 1:50 PM


Visibility: N/A

Pressure: 29.92 "Hg

Humidity: 47%

Dew point: 32 °F

Location of Winsen (Luhe)Location

Historic Weather in Winsen (Luhe) — Graph

°F

Winsen (Luhe) temperature yesterday

Maximum temperature yesterday: 54 °F (at 3:20 PM)
Minimum temperature yesterday: 43 °F (at 5:50 AM)
Average temperature yesterday: 48 °F

Past Weeks' High & Low Weather Summary

 TemperatureHumidityPressure
High70 °F (Apr 15, 3:20 PM)100% (Apr 14, 5:50 AM)30.39 "Hg (Apr 14, 5:50 AM)
Low32 °F (Apr 28, 6:20 AM)30% (Apr 20, 4:50 PM)29.68 "Hg (Apr 27, 5:50 AM)
Average52 °F69%30.09 "Hg
* Reported Apr 13 1:20 PM — Apr 28 1:20 PM, Winsen (Luhe), Weather by CustomWeather, © 2015

Note: Actual official high and low records may vary slightly from our data, if they occured in-between our weather recording intervals... More about our weather records

Advertising

Winsen (Luhe) weather history for previous 24 hours

 ConditionsComfort  
Time TempWeatherWind HumidityBarometerVisibility
1:20 PM
Tue, Apr 28
50 °FScattered clouds.7 mph47%29.95 "HgN/A
12:50 PM50 °FPassing clouds.7 mph50%29.92 "HgN/A
12:20 PM50 °FScattered clouds.6 mph50%29.92 "HgN/A
11:50 AM48 °FScattered clouds.6 mph54%29.92 "HgN/A
11:20 AM48 °FScattered clouds.7 mph54%29.92 "HgN/A
10:50 AM48 °FPassing clouds.6 mph58%29.92 "HgN/A
10:20 AM46 °FPassing clouds.5 mph57%29.92 "HgN/A
9:50 AM46 °FPassing clouds.5 mph66%29.89 "HgN/A
9:20 AM45 °FPassing clouds.3 mph71%29.89 "HgN/A
8:50 AM43 °FSunny.3 mph81%29.89 "Hg10 mi
8:20 AM41 °FSunny.3 mph87%29.89 "Hg10 mi
7:50 AM39 °FSunny.3 mph93%29.89 "Hg10 mi
7:20 AM36 °FSunny.3 mph100%29.89 "Hg10 mi
6:50 AM34 °FClear.5 mph100%29.86 "Hg10 mi
6:20 AM32 °FClear.3 mph100%29.86 "Hg10 mi
7:20 PM
Mon, Apr 27
48 °FSunny.18 mph66%29.77 "Hg10 mi
6:50 PM50 °FSunny.18 mph62%29.77 "Hg10 mi
6:20 PM50 °FSunny.17 mph62%29.77 "Hg10 mi
5:50 PM52 °FSunny.16 mph54%29.77 "Hg10 mi
5:20 PM52 °FSunny.14 mph50%29.77 "Hg10 mi
4:50 PM52 °FSunny.16 mph47%29.77 "Hg10 mi
4:20 PM54 °FScattered clouds.16 mph58%29.77 "HgN/A
3:50 PM54 °FScattered clouds.15 mph54%29.74 "HgN/A
3:20 PM54 °FScattered clouds.9 mph51%29.74 "HgN/A
2:50 PM52 °FBroken clouds.9 mph50%29.74 "HgN/A
2:20 PM52 °FBroken clouds.12 mph50%29.74 "HgN/A
Weather by CustomWeather, © 2015

See weather overviewHow to use our weather pages